Location: *
(45.8589°N, 4.7139°E)
Time: 14:55:15
(UTC+00:00)

USA 234 - Pass Details

Date: 09 April 2020
Orbit: 1102 x 1106 km, 123.0° (Epoch: 14 May)

Event Time Altitude Azimuth Distance (km) Brightness Sun altitude
Rises 19:52:07 0° 56° (NE) 3,925 5.9 -15.7°
Reaches altitude 10° 19:54:54 10° 66° (ENE) 2,965 5.2 -16.1°
Maximum altitude 20:00:42 33° 128° (SE) 1,768 3.8 -16.9°
Drops below altitude 10° 20:06:27 10° 191° (S) 2,953 5.3 -17.8°
Sets 20:09:13 0° 200° (SSW) 3,908 6.0 -18.2°
